Location: Tel Aviv
(32.0670°N, 34.7670°E)
Time: 14:29:43
(UTC+03:00)

YUBILEINY - Visible Passes

Search period start: 17 September 2024 00:00
Search period end: 27 September 2024 00:00
Orbit: 1478 x 1508 km, 82.5° (Epoch: 17 September)

Date Brightness Start Highest point End Pass type
(mag) Time Alt. Az. Time Alt. Az. Time Alt. Az.
17 Sep ? 02:42:47 48° ENE 02:42:47 48° ENE 02:50:15 10° NNE visible
17 Sep ? 04:38:43 30° WNW 04:38:49 30° WNW 04:46:18 10° NNW visible
18 Sep ? 01:54:04 24° ENE 01:54:04 24° ENE 01:59:27 10° NNE visible
18 Sep ? 03:50:01 54° NW 03:50:01 54° NW 03:57:33 10° N visible
19 Sep ? 03:01:15 58° NNE 03:01:15 58° NNE 03:08:03 10° N visible
19 Sep ? 04:57:11 18° WNW 04:57:11 18° WNW 05:02:27 10° NNW visible
20 Sep ? 02:12:29 34° NE 02:12:29 34° NE 02:17:54 10° NNE visible
20 Sep ? 04:08:25 34° NW 04:08:25 34° NW 04:14:33 10° NNW visible
21 Sep ? 01:23:40 17° ENE 01:23:40 17° ENE 01:26:41 10° NE visible
21 Sep ? 03:19:36 46° NNW 03:19:36 46° NNW 03:25:32 10° N visible
22 Sep ? 02:30:46 39° NNE 02:30:46 39° NNE 02:35:52 10° NNE visible
22 Sep ? 04:26:41 21° NW 04:26:41 21° NW 04:31:03 10° NNW visible
23 Sep ? 01:41:54 23° NE 01:41:54 23° NE 01:45:30 10° NNE visible
23 Sep ? 03:37:50 32° NNW 03:37:50 32° NNW 03:42:43 10° N visible
24 Sep ? 00:53:01 11° NE 00:53:01 11° NE 00:53:38 10° NE visible
24 Sep ? 02:48:56 35° N 02:48:56 35° N 02:53:29 10° N visible
24 Sep ? 04:44:52 12° NW 04:44:52 12° NW 04:46:17 10° NW visible
25 Sep ? 02:00:02 27° NNE 02:00:02 27° NNE 02:03:37 10° NNE visible
25 Sep ? 03:55:57 21° NW 03:55:57 21° NW 03:59:28 10° NNW visible
26 Sep ? 01:11:07 16° NE 01:11:07 16° NE 01:12:57 10° NNE visible
26 Sep ? 03:07:02 28° NNW 03:07:02 28° NNW 03:10:47 10° N visible
